Theta_e
314 320 318 323 320 319 322 321 322 323 323 325 325 326 326 326 323 322 322 322 323 322 323 325 324 324 324 324 324 325 328 329 330 332 332 332 331 331 329 328 328 328 328 328
314 314 316 316 317 317 318 321 322 322 323 323 324 326 326 327 326 324 325 323 322 324 325 325 324 323 323 324 324 328 329 330 333 332 330 331 331 330 330 328 328 329 327 326
313 315 315 315 319 318 318 320 323 323 322 322 324 327 328 328 327 326 325 323 324 324 325 326 324 323 323 323 325 328 330 331 333 331 331 329 328 329 329 328 327 328 326 327
313 314 316 317 316 319 321 320 322 324 324 325 325 328 325 326 325 324 323 322 324 324 324 326 323 322 323 325 325 329 330 332 333 331 330 330 328 328 328 329 327 327 328 329
313 314 314 314 314 316 321 321 322 325 325 324 325 325 324 324 325 324 322 323 323 323 324 326 324 323 326 323 327 330 330 332 332 331 331 330 330 329 328 328 328 328 328 328
313 314 314 314 315 316 321 322 322 323 324 326 325 325 327 324 326 325 325 323 324 324 324 325 325 325 325 324 329 330 330 332 332 329 330 329 327 328 328 328 329 328 329 329
315 315 315 315 314 316 320 320 323 324 326 328 324 327 327 325 325 323 327 327 325 325 326 326 326 324 324 326 328 330 330 330 330 330 329 329 328 327 328 329 329 329 329 330
315 317 316 316 315 315 316 319 324 326 328 327 325 328 326 323 324 324 327 326 326 326 325 326 325 324 323 325 328 330 329 329 329 329 329 328 327 326 327 330 330 329 330 330
315 317 318 317 316 316 315 316 317 322 326 325 325 326 327 324 329 328 327 327 327 325 325 326 323 322 322 326 327 329 329 328 329 329 329 329 328 325 326 326 329 329 330 330
316 317 318 317 316 316 315 318 320 321 326 328 327 328 328 324 330 329 329 327 326 324 324 325 324 321 322 326 327 327 329 327 329 329 329 330 329 330 329 327 329 329 329 329
315 317 320 317 316 316 314 315 317 321 322 326 326 327 322 322 323 331 328 327 325 325 324 325 323 322 323 326 324 327 328 328 328 328 329 330 330 330 329 326 329 328 329 329
316 314 317 318 317 316 315 315 316 323 325 323 324 325 323 323 325 329 329 327 325 324 324 324 321 321 322 323 324 327 326 327 328 327 329 329 330 329 329 326 327 329 329 329
319 316 318 319 319 319 316 316 318 320 322 324 326 325 323 326 328 328 329 326 325 324 323 323 320 321 322 322 324 325 326 326 326 326 328 330 330 330 330 328 326 327 327 329
314 319 317 319 322 320 319 317 320 323 325 325 326 325 327 326 330 328 328 326 325 324 324 323 321 321 322 322 324 325 325 326 326 326 326 329 329 329 330 328 328 328 328 328
310 320 317 317 319 321 321 319 320 326 324 327 325 324 326 323 329 329 327 325 324 324 324 324 321 320 320 322 324 325 326 325 326 325 325 329 329 329 330 330 328 330 329 329
310 316 320 318 317 318 319 321 319 324 325 323 325 326 323 323 327 329 327 326 325 325 325 324 322 320 319 323 323 325 325 324 325 325 324 328 327 329 329 331 330 327 328 330
311 316 320 319 318 318 318 319 322 325 325 324 324 322 322 324 322 328 327 326 326 325 325 324 323 320 320 321 324 324 326 323 325 325 324 326 326 328 330 329 331 325 327 327
311 313 315 322 318 322 321 320 322 325 324 325 322 321 324 324 324 323 327 326 326 325 325 324 323 321 321 321 323 325 325 320 324 324 324 324 325 327 329 327 329 325 323 324
310 312 318 324 320 320 319 322 322 324 324 322 323 321 322 322 322 323 327 326 326 325 324 324 324 322 321 321 323 324 323 319 322 323 323 323 324 326 329 328 327 325 323 322
311 312 322 326 320 322 319 324 322 323 326 322 322 321 321 321 324 322 323 327 326 325 324 324 325 322 321 321 323 323 320 318 320 322 322 322 323 325 327 328 328 326 325 321
320 319 321 323 327 322 320 322 324 327 326 322 322 321 320 321 322 321 320 326 326 325 324 325 324 322 321 322 323 322 319 318 319 321 321 322 322 323 323 327 327 327 326 323
322 327 326 324 326 325 323 323 324 322 321 323 322 319 320 320 320 320 321 326 326 325 324 325 325 323 321 322 323 323 320 319 319 320 320 320 320 322 322 325 326 326 326 326
319 317 322 323 325 320 320 319 318 324 321 325 321 321 321 320 322 322 323 324 326 326 325 326 326 323 321 322 323 323 322 320 320 320 320 320 319 321 322 323 326 326 326 326
314 314 317 319 322 317 318 316 316 321 325 325 321 323 321 322 322 322 322 324 327 327 326 326 326 323 322 322 322 322 323 322 321 320 320 319 319 321 322 324 325 325 326 328
314 316 316 319 318 316 317 315 315 314 321 327 326 324 323 321 321 321 321 325 326 328 327 327 326 324 323 322 322 322 323 324 322 320 320 318 318 321 322 324 326 326 325 325
316 315 316 319 316 315 316 314 315 314 315 324 328 327 326 325 321 320 321 325 326 328 327 327 327 325 324 322 322 323 324 324 323 321 321 319 317 320 322 324 325 325 324 324
Wind_Speed
10 9 16 23 25 18 11 6 11 18 17 6 10 15 16 11 6 8 10 11 11 6 7 21 29 32 28 23 20 14 12 8 1 3 5 5 6 8 7 7 10 8 8 11
7 27 22 20 12 13 13 13 19 20 18 5 14 22 20 8 7 10 13 9 6 7 12 12 21 26 28 24 18 15 12 8 3 2 3 6 10 7 6 7 9 7 3 8
25 12 21 20 16 15 16 18 20 19 14 9 8 11 13 10 8 6 7 8 10 18 17 13 14 22 27 23 19 16 14 7 4 1 2 6 4 4 3 5 10 2 2 4
17 19 19 19 19 16 18 21 19 20 11 8 7 6 6 6 7 5 7 6 10 14 14 14 11 16 25 22 19 17 13 8 5 1 3 5 5 4 3 6 7 4 3 5
11 21 24 22 26 24 21 14 15 14 13 3 20 2 8 4 5 9 6 8 6 12 17 16 14 20 24 24 20 19 12 8 5 3 2 5 6 3 3 3 4 4 3 7
19 9 23 27 17 21 23 7 8 9 7 8 15 5 14 5 7 4 0 7 11 11 10 10 17 23 23 23 23 18 12 8 3 2 3 6 4 6 5 5 5 5 1 5
14 21 14 13 22 17 13 9 5 4 6 8 8 5 13 8 8 8 9 8 10 12 14 15 13 10 20 25 22 19 14 10 6 4 3 4 7 6 6 5 5 4 1 4
14 11 25 22 20 20 24 14 6 7 4 4 7 7 11 8 8 10 11 13 12 12 12 14 13 13 20 25 23 20 17 13 10 7 3 4 5 5 5 4 2 5 6 6
16 17 6 24 18 20 10 17 13 3 2 2 5 5 6 5 6 12 10 13 13 12 12 14 10 16 22 26 24 21 19 14 14 8 4 3 4 5 5 6 5 6 6 5
4 5 17 14 17 22 21 5 8 0 8 7 4 3 6 5 8 10 11 11 11 9 11 11 12 15 24 28 23 18 21 17 15 10 6 3 4 3 4 5 7 8 7 6
11 4 5 16 18 27 7 19 8 7 7 8 5 9 7 11 12 15 15 14 15 14 13 13 11 17 26 27 21 19 21 19 15 11 9 5 4 3 3 5 8 8 8 7
23 5 9 17 4 19 18 9 21 11 7 3 6 9 6 9 16 17 14 15 12 14 14 12 12 16 21 25 22 21 22 19 17 14 12 7 7 5 6 8 9 8 7 7
6 16 4 8 2 5 20 19 13 7 4 8 9 8 3 2 15 12 16 12 13 13 11 11 10 11 17 23 25 22 19 21 18 14 12 11 9 7 6 7 9 7 7 8
7 5 28 17 12 8 7 19 14 14 7 6 14 5 4 8 10 8 10 14 15 16 16 13 11 11 18 22 26 24 20 24 21 19 15 14 10 8 8 10 12 12 10 9
7 8 19 29 17 4 6 18 20 17 14 15 8 11 9 11 14 17 16 13 14 14 14 15 14 12 16 19 24 26 23 25 24 22 17 15 10 10 10 10 10 9 8 13
6 6 6 20 29 26 16 9 24 21 10 8 13 7 9 15 15 13 17 18 18 18 17 17 16 15 14 22 25 28 26 26 28 25 20 17 12 11 10 10 11 12 13 15
4 5 6 20 20 21 19 23 10 15 19 12 8 8 8 6 11 19 17 20 20 19 18 18 18 17 21 25 29 27 29 27 32 29 23 20 16 11 8 13 14 17 18 17
7 2 3 6 6 11 13 12 15 15 18 17 8 10 15 11 15 13 18 21 19 19 19 18 16 18 25 28 31 33 31 32 33 31 26 22 19 14 14 15 17 20 18 17
17 7 4 3 14 5 11 9 13 8 9 13 17 10 12 9 7 4 19 21 22 21 20 18 28 30 28 31 35 35 32 33 31 30 30 25 23 19 17 16 18 20 18 19
16 15 4 4 6 13 6 6 9 7 10 10 11 13 11 8 7 5 16 18 18 20 17 18 26 27 28 29 35 32 29 29 28 31 33 29 26 23 20 17 19 21 18 18
2 5 11 5 4 5 5 7 5 13 10 6 13 12 9 9 8 9 13 18 19 20 19 24 27 29 32 32 34 29 30 30 34 34 33 32 29 27 23 21 21 21 19 18
4 5 2 4 5 2 19 6 5 5 5 10 10 9 11 9 8 8 12 17 17 18 16 25 24 24 30 35 35 28 30 35 37 34 34 34 32 30 27 25 25 22 20 20
2 4 5 5 3 12 6 11 9 9 6 4 12 8 14 11 9 10 9 14 16 18 17 28 26 23 27 35 36 30 31 36 38 35 33 36 35 33 32 29 28 25 23 22
5 7 3 11 2 20 13 22 21 20 13 14 7 11 11 13 10 10 9 9 14 15 16 25 22 19 23 32 34 36 36 39 36 34 35 36 36 35 35 33 32 29 26 24
4 3 7 9 11 19 8 22 19 22 18 17 15 2 14 11 10 11 8 12 13 16 19 26 23 23 27 33 31 33 39 38 34 33 34 34 35 37 35 35 36 35 31 30
4 3 1 3 12 7 14 19 18 20 20 15 11 12 9 11 5 9 10 12 13 14 21 20 23 25 27 31 31 35 39 41 35 30 30 31 30 31 30 30 29 32 32 30
Wind_Direction
189 199 212 213 219 228 243 250 252 257 262 250 254 264 260 267 248 231 241 247 234 183 146 153 156 157 149 150 150 147 146 137 93 348 335 324 289 283 289 322 325 307 268 243
201 220 213 225 221 221 225 247 255 270 271 268 279 273 255 245 229 223 225 249 201 151 144 147 148 150 153 154 151 147 145 139 108 2 321 309 303 285 295 324 332 326 259 200
207 210 209 209 218 214 224 227 245 251 275 268 272 280 271 274 237 275 255 240 173 166 154 157 157 155 155 154 154 153 147 137 141 329 327 339 314 311 299 308 341 321 162 192
232 215 206 212 220 213 233 224 237 248 258 258 159 268 290 247 239 233 270 193 167 170 153 152 149 155 158 157 155 150 144 140 174 224 326 348 320 326 330 315 346 355 193 204
206 188 215 222 216 215 236 222 237 252 246 237 276 215 259 285 280 282 232 178 174 164 151 154 157 159 160 158 154 148 141 149 182 199 316 330 334 9 39 36 3 355 212 226
210 194 209 222 226 215 236 250 250 261 241 242 249 179 278 225 221 246 126 174 150 145 134 134 151 156 159 159 152 150 147 159 189 171 5 358 60 90 72 21 1 350 297 214
210 217 225 198 212 224 208 194 243 266 210 225 226 225 252 252 236 202 169 157 146 147 146 153 155 155 157 158 155 155 159 166 177 157 17 62 95 90 49 22 12 354 120 152
205 217 209 209 203 206 221 199 194 198 200 199 224 212 247 221 258 184 156 148 146 151 157 157 162 159 161 162 161 162 170 171 168 155 85 98 94 75 59 29 354 53 103 102
197 226 230 203 207 187 205 218 203 166 223 85 215 268 355 118 104 124 140 140 158 157 157 160 157 164 164 166 168 171 176 177 161 165 139 133 87 84 61 40 70 99 108 91
223 199 231 216 197 223 218 153 180 202 204 224 275 214 222 166 173 152 149 165 161 158 155 155 165 168 168 171 171 175 180 175 166 170 169 142 95 77 65 61 104 111 107 112
248 71 313 207 203 203 180 218 223 177 180 192 208 247 210 194 177 169 177 172 168 166 163 164 169 172 171 170 168 169 176 171 171 177 176 148 123 78 106 93 121 122 107 111
203 148 242 243 292 206 210 184 210 221 217 207 172 246 252 213 167 169 173 173 168 166 164 163 166 162 162 169 167 167 171 169 167 165 162 150 127 108 123 104 121 137 121 120
319 215 263 324 184 234 202 207 203 182 119 195 184 239 230 65 171 172 154 162 166 160 156 159 157 165 165 169 172 173 171 173 172 168 155 158 136 131 126 117 109 120 130 120
318 249 209 216 221 178 192 206 190 186 189 171 206 170 158 159 170 153 166 165 165 168 167 165 167 172 169 173 177 180 178 178 176 172 162 161 152 136 142 127 113 110 120 120
2 250 210 220 243 245 206 207 199 198 193 192 189 178 191 177 174 178 174 164 160 170 169 173 174 175 171 173 179 184 184 180 176 173 166 165 164 148 151 143 136 117 140 116
346 293 261 217 229 237 250 263 207 208 190 144 162 206 187 186 181 165 175 169 176 179 179 179 180 177 174 177 179 186 186 180 176 176 172 165 164 164 158 163 141 128 130 145
290 331 336 219 215 233 240 239 225 202 193 149 168 196 157 176 165 178 178 178 182 184 179 181 184 183 181 179 179 183 188 180 177 177 173 170 169 174 171 162 157 139 135 140
234 304 271 251 167 220 237 199 220 209 194 181 165 163 169 186 200 177 181 179 185 183 181 187 183 184 185 178 179 183 185 179 177 176 176 176 173 173 156 151 151 147 140 137
204 194 269 234 195 255 227 202 193 173 217 184 180 182 182 169 141 175 188 185 182 184 187 186 185 184 180 175 179 178 177 176 174 175 179 180 179 177 168 157 156 156 145 147
182 203 201 327 155 215 213 177 180 144 215 186 160 189 190 129 171 217 181 192 187 186 182 181 182 176 176 178 174 168 170 170 174 178 183 182 184 182 179 172 157 163 156 150
199 186 219 236 284 290 236 197 93 180 221 171 179 187 169 186 183 199 163 185 183 180 181 177 169 177 179 173 169 168 170 178 182 186 186 186 187 185 184 179 170 161 165 159
283 321 221 189 228 100 348 299 108 283 278 184 191 177 177 176 187 176 167 175 176 177 169 168 173 176 174 173 171 169 178 182 182 186 188 190 189 190 188 185 181 176 169 172
308 19 308 322 354 311 295 50 342 355 298 233 183 183 176 160 172 170 161 162 170 169 171 174 177 169 172 175 178 175 181 179 181 186 188 194 193 193 192 189 186 183 183 182
212 274 263 332 346 325 355 8 8 7 348 336 263 168 162 171 171 166 154 160 166 170 167 173 167 166 171 179 183 185 178 180 180 185 188 192 192 192 194 193 191 191 192 193
187 270 343 268 332 330 360 3 1 349 352 351 348 354 171 161 176 161 160 156 167 166 167 167 170 173 179 179 182 181 182 179 180 186 187 186 188 191 190 194 193 195 201 202
194 194 178 288 321 288 305 327 333 345 347 350 349 4 42 42 200 168 165 164 160 163 166 171 175 175 176 178 180 181 182 183 181 182 182 181 182 184 188 189 196 205 210 208